Location: ????????
(55.1591°N, 39.1782°E)
Time: 16:19:35
(UTC+00:00)

Thor Agena Rocket - Pass Details

Date: 14 April 2024
Orbit: 757 x 805 km, 99.1° (Epoch: 23 May)

Event Time Altitude Azimuth Distance (km) Brightness Sun altitude
Rises 01:16:07 0° 17° (NNE) 3,235 7.6 -9.3°
Reaches altitude 10° 01:18:26 10° 19° (NNE) 2,302 6.8 -9.0°
Maximum altitude 01:23:30 80° 107° (ESE) 776 3.6 -8.4°
Drops below altitude 10° 01:28:32 10° 194° (SSW) 2,287 5.6 -7.8°
Sets 01:30:50 0° 196° (SSW) 3,211 6.3 -7.5°
